Tracking 30509 objects as of 18-May-2025
HD Live streaming from Space Station
objects crossing your sky now

COSMOS 1275 DEB

Track COSMOS 1275 DEB now!
10-day predictions


NORAD ID: 12648
Int'l Code: 1981-053C
Perigee: 955.9 km
Apogee: 975.4 km
Inclination: 83.0 °
Period: 104.2 minutes
Semi major axis: 7336 km
RCS: 0.408 m2 (medium)
Launch date: June 4, 1981
Source: Commonwealth of Independent States (former USSR) (CIS)
Launch site: PLESETSK MISSILE AND SPACE COMPLEX (PKMTR)

Note: This is SATELLITE DEBRIS
Your satellite tracking list
Your tracking list is empty




NASA's NSSDC Master Catalog

Two Line Element Set (TLE):
1 12648U 81053C   25137.51143868  .00000343  00000-0  30728-3 0  9995
2 12648  82.9675 142.3291 0013353 202.0456 278.4083 13.81516669203032
Source of the keplerian elements: AFSPC